Location: Glencliff
(36.1226°N, 86.7183°W)
Time: 16:18:12
(UTC+00:00)

Meteor 2-3 Rocket - Pass Details

Date: 25 August 2019
Orbit: 841 x 886 km, 81.2° (Epoch: 21 September)

Event Time Altitude Azimuth Distance (km) Brightness Sun altitude
Rises 10:01:07 0° 348° (NNW) 3,410 7.0 -14.5°
Reaches altitude 10° 10:03:34 10° 346° (NNW) 2,468 6.3 -14.0°
Maximum altitude 10:09:05 67° 265° (W) 910 3.6 -13.0°
Drops below altitude 10° 10:14:35 10° 183° (S) 2,450 5.9 -12.0°
Sets 10:17:00 0° 181° (S) 3,383 6.6 -11.5°
